User: anonymous   Login
Location: Unspecified
(0.0000°N, 0.0000°E)
Time: 23:09:59
(UTC+00:00)
Language:

NANOSAT-1 - Orbit

View from above orbital plane
View from above orbital plane
View from above satellite
View from above satellite

Ground track
Ground track

The orbit data is extracted from the following two-line orbital elements,

1 28493U 04049B   18352.23118629  .00000047  00000-0  15209-4 0  9996
2 28493  98.1515  70.7626 0005585  61.3198 298.8570 14.73466388751772
Epoch (UTC): 18 December 2018 05:32:54
Eccentricity: 0.0005585
inclination: 98.1515°
perigee height: 646 km
apogee height: 654 km
right ascension of ascending node: 70.7626°
argument of perigee: 61.3198°
revolutions per day: 14.73466388
mean anomaly at epoch: 298.8570°
orbit number at epoch: 75177

The dashed part of the orbit path shows where the satellite is in the earth's shadow,  

DLR